Flag for U.S.A. Weather past 2 weeks in Angels Camp, California, U.S.A.

Now
58 °F

Clear.


Feels Like: 58 °F
Forecast: 36 / 69 °F
Wind: No wind

Location: Modesto City-County-Sham Field

Current Time: Mar 4, 2015 at 8:14:27 PM

Latest Report: Mar 4, 2015 at 6:53 PM


Visibility: 10 mi

Pressure: 30.17 "Hg

Humidity: 35%

Dew point: 30 °F

Location of Angels CampLocation

Historic Weather in Angels Camp — Graph

°F

Angels Camp temperature yesterday

Maximum temperature yesterday: 65 °F (at 1:53 PM)
Minimum temperature yesterday: 41 °F (at 6:53 AM)
Average temperature yesterday: 53 °F

Past Weeks' High & Low Weather Summary

 TemperatureHumidityPressure
High72 °F (Feb 26, 3:53 PM)97% (Feb 19, 8:53 AM)30.35 "Hg (Feb 19, 8:53 AM)
Low37 °F (Feb 25, 6:58 AM)14% (Feb 24, 2:53 PM)29.71 "Hg (Feb 27, 5:53 PM)
Average53 °F70%30.00 "Hg
* Reported Feb 17 5:53 PM — Mar 4 5:53 PM, Angels Camp, Weather by CustomWeather, © 2015

Note: Actual official high and low records may vary slightly from our data, if they occured in-between our weather recording intervals... More about our weather records

Advertising

Angels Camp weather history for previous 24 hours

 ConditionsComfort  
Time TempWeatherWind HumidityBarometerVisibility
5:53 PM
Wed, Mar 4
64 °FSunny.5 mph27%30.15 "Hg10 mi
4:53 PM66 °FSunny.5 mph31%30.14 "Hg10 mi
3:53 PM67 °FSunny.No wind30%30.14 "Hg10 mi
2:53 PM66 °FSunny.6 mph29%30.13 "Hg10 mi
1:53 PM65 °FSunny.No wind23%30.13 "Hg10 mi
12:53 PM65 °FSunny.6 mph25%30.14 "Hg10 mi
11:53 AM63 °FSunny.5 mph33%30.15 "Hg10 mi
10:53 AM60 °FSunny.5 mph42%30.15 "Hg10 mi
9:53 AM57 °FSunny.3 mph58%30.15 "Hg10 mi
8:53 AM51 °FSunny.No wind74%30.14 "Hg9 mi
7:53 AM45 °FSunny.No wind86%30.11 "Hg8 mi
6:53 AM39 °FFog.3 mph93%30.09 "Hg5 mi
5:53 AM41 °FFog.No wind86%30.06 "Hg6 mi
4:53 AM42 °FClear.No wind85%30.05 "Hg9 mi
3:53 AM43 °FClear.No wind86%30.03 "Hg10 mi
2:53 AM43 °FClear.No wind89%30.03 "Hg9 mi
1:53 AM45 °FClear.3 mph82%30.03 "Hg10 mi
12:53 AM49 °FClear.3 mph74%30.01 "Hg10 mi
11:53 PM
Tue, Mar 3
50 °FClear.7 mph74%30.00 "Hg10 mi
10:53 PM52 °FClear.N/A72%29.99 "Hg10 mi
9:53 PM52 °FClear.8 mph72%29.99 "Hg10 mi
8:53 PM54 °FClear.9 mph64%29.98 "Hg10 mi
Weather by CustomWeather, © 2015

See weather overviewHow to use our weather pages